COSMOS 1275 DEB, 13464

Orbit data source: Space-Track

COSMOS 1275 DEB, 13464 is space debris in LEO originally from a launch on Thu, 04 Jun 1981 UTC launched from the Plesetsk Missile And Space Complex (PKMTR). Debris objects in space refer to the collection of defunct objects orbiting the Earth. Examples of debris include non-operational satellites, rocket bodies, and fragments generated from explosions, collisions, or faulty payload assembly.

Loading next visibility...
Identifier
13464, 1981-053FL
Orbit
LEO
Country
Flag of CISCIS
Related business
Manufacturer
Unknown
Mission
Spacecraft
Bus & Motor
Unknown
Mass
Unknown
Launch date (UTC)
1981-06-04 (44 years ago)
Launch vehicle
Unknown
Launch site
Plesetsk Missile And Space Complex (PKMTR)
Object type
Payload
Rocket body
Debris
Shape & HBR
Unknown shape, 0.1 m
Radar Cross Section
Small (<0.1 m²)

Expand to show TLE details & history
Last TLE update: 14 hours ago

TLE from 14 hours ago
0 COSMOS 1275 DEB
1 13464U 81053FL  25293.87787949  .00011533  00000-0  36795-2 0  9990
2 13464  82.9056 246.7724 0031352  62.8505 324.7194 14.39371054222544
Epoch: 2025-10-20T21:04Z
TLE epoch observation values (Epoch: 2025-10-20T21:04:08.787Z)
Latitude
27.17422°
Longitude
-95.1945°
Altitude
745.711 km
Speed
7.494 km/s
True Right ascension
16h 41m 39s
True Declination
27° 02' 04"
Sunlit
Object was in daylight at epoch
Visualization orbit readout
Latitude
Unknown
Longitude
Unknown
Altitude
Unknown
Speed
Unknown
Apparent Right ascension
Unknown
Apparent Declination
Unknown
Sunlit
N/A
Visualization observer readout
Local Sidereal Time
06:26:54
Azimuth
Unknown
Elevation
Unknown
Doppler factor
Unknown
Orbital elements
Apogee altitude
780.011 km
Perigee altitude
735.267 km
Semi-major axis
7,135.776 km
Eccentricity
0.00314
Inclination
82.9056°
RAAN
246.7724°
Arg. of periapsis
62.8505°
True anomaly
324.51123°
Mean anomaly
324.7194°
Eccentric anomaly
324.61538°
Mean motion
3.60065 °/min
Orbital period
99.98 mins
BSTAR
0.0036795

Documentation

Showing up to 5 results
|